Location: Brachbach
(49.1847°N, 9.7240°E)
Time: 04:19:50
(UTC+00:00)

FENGYUN 3A - Pass Details

Date: 16 August 2024
Orbit: 822 x 834 km, 98.6° (Epoch: 08 September)

Event Time Altitude Azimuth Distance (km) Brightness Sun altitude
Rises 02:57:35 0° 7° (N) 3,395 7.6 -11.8°
Reaches altitude 10° 03:00:12 10° 357° (N) 2,455 6.6 -11.4°
Maximum altitude 03:04:51 30° 298° (WNW) 1,460 4.7 -10.8°
Enters shadow 03:08:50 13° 243° (WSW) 2,230 5.2 -10.3°
